OBJECT D, 43834

Orbit data source: Space-Track

You're viewing an Uncataloged Satellite

Recently launched and/or uncataloged satellites may have evolving metadata. Metadata may include but not limited to: Owner, Maufacturer, Bus, Motor, and Mission.

OBJECT D, 43834 is a satellite in SSO that was launched on Fri, 07 Dec 2018 UTC via a CHANG ZHENG 2D launch vehicle from the Jiuquan Satellite Launch Center, China (JSC). Unknown objects in Earth's orbit typically refer to objects detected orbiting the Earth but have not yet been identified or cataloged. These objects could be anything from previously untracked satellites, spent rocket stages, debris from satellite collisions, or even natural meteoroids temporarily captured by Earth's gravity.

Loading next visibility...
Identifier
43834, 2018-102D
Orbit
SSO
Country
Flag of TBDTBD
Related business
None
Manufacturer
Unknown
Mission
Commercial Technology
Bus & Motor
Unknown
Mass
Unknown
Launch date (UTC)
2018-12-07 (7 years ago)
Launch vehicle
CHANG ZHENG 2D
Launch site
Jiuquan Satellite Launch Center, China (JSC)
Object type
Unknown
Shape & HBR
Box, 0.1 m
Radar Cross Section
0.080 m², Medium (>0.1 m² and < 1m²)

Expand to show TLE details & history
Last TLE update: 9 hours ago

TLE from 9 hours ago
0 OBJECT D
1 43834U 18102D   25303.97489421  .00042924  00000-0  89059-3 0  9996
2 43834  97.3674  21.6522 0006872 179.8063 180.3190 15.45565358381624
Epoch: 2025-10-30T23:23Z
TLE epoch observation values (Epoch: 2025-10-30T23:23:50.859Z)
Latitude
-0.00004°
Longitude
-8.83568°
Altitude
437.523 km
Speed
7.647 km/s
True Right ascension
01h 26m 36s
True Declination
0° 00' 00"
Sunlit
Object was in full shadow at epoch
Visualization orbit readout
Latitude
Unknown
Longitude
Unknown
Altitude
Unknown
Speed
Unknown
Apparent Right ascension
Unknown
Apparent Declination
Unknown
Sunlit
N/A
Visualization observer readout
Local Sidereal Time
03:50:33
Azimuth
Unknown
Elevation
Unknown
Doppler factor
Unknown
Orbital elements
Apogee altitude
431.324 km
Perigee altitude
421.971 km
Semi-major axis
6,804.785 km
Eccentricity
0.00069
Inclination
97.3674°
RAAN
21.6522°
Arg. of periapsis
179.8063°
True anomaly
180.31856°
Mean anomaly
180.319°
Eccentric anomaly
180.31878°
Mean motion
3.86653 °/min
Orbital period
93.11 mins
BSTAR
0.00089059
Loading maneuver chart data...
Computing Atmospheric mass density...
Loading historical data...
Loading historical data...
Loading historical data...
Loading historical data...
Loading historical data...
Loading historical data...
Loading historical data...

Documentation

Showing up to 5 results
|